CZ-3C DEB, 40823

Orbit data source: Space-Track

CZ-3C DEB, 40823 is space debris in HEO originally from a launch on Sun, 31 Oct 2010 UTC launched from the Xichang Space Center, China (XSC). Debris objects in space refer to the collection of defunct objects orbiting the Earth. Examples of debris include non-operational satellites, rocket bodies, and fragments generated from explosions, collisions, or faulty payload assembly.

Not visible in the next 10 days
Identifier
40823, 2010-057AQ
Orbit
HEO
Country
Flag of CNCN / PRC
Related business
Manufacturer
CALT
Mission
Spacecraft
Bus & Motor
Unknown
Mass
Unknown
Launch date (UTC)
2010-10-31 (15 years ago)
Launch vehicle
Unknown
Launch site
Xichang Space Center, China (XSC)
Object type
Payload
Rocket body
Debris
Shape & HBR
Unknown shape, 0.2 m
Radar Cross Section
Small (<0.1 m²)

Expand to show TLE details & history
Last TLE update: 2 days ago

TLE from 2 days ago
0 CZ-3C DEB
1 40823U 10057AQ  25347.50890221  .00000121  00000-0  16032-2 0  9996
2 40823  20.2185 132.2234 7186067  84.9840 346.2476  2.23709926 88864
Epoch: 2025-12-13T12:12Z
TLE epoch observation values (Epoch: 2025-12-13T12:12:49.150Z)
Latitude
0.00002°
Longitude
-133.55008°
Altitude
4,872.81 km
Speed
7.397 km/s
True Right ascension
08h 48m 21s
True Declination
0° 00' 00"
Sunlit
Object was in daylight at epoch
Visualization orbit readout
Latitude
Unknown
Longitude
Unknown
Altitude
Unknown
Speed
Unknown
Apparent Right ascension
Unknown
Apparent Declination
Unknown
Sunlit
N/A
Visualization observer readout
Local Sidereal Time
19:00:56
Azimuth
Unknown
Elevation
Unknown
Doppler factor
Unknown
Orbital elements
Apogee altitude
36,070.621 km
Perigee altitude
572.142 km
Semi-major axis
24,699.519 km
Eccentricity
0.71861
Inclination
20.2185°
RAAN
132.2234°
Arg. of periapsis
84.984°
True anomaly
275.31404°
Mean anomaly
346.2476°
Eccentric anomaly
319.51718°
Mean motion
0.55913 °/min
Orbital period
643.86 mins
BSTAR
0.0016032
Loading maneuver chart data...
Computing Atmospheric mass density...
Loading historical data...
Loading historical data...
Loading historical data...
Loading historical data...
Loading historical data...
Loading historical data...
Loading historical data...

Documentation

Showing up to 5 results
|